Camarillo, CA

3:18 AM PDT on August 27, 2016 (GMT -0700)
Camarillo

Weather History for KCMA - December, 2013

Change the Weather History Date:

Monday, December 16, 2013

  Actual Average Record
Temperature  
Mean Temperature 69 °F 53 °F  
Max Temperature 83 °F 65 °F 87 °F (1998)
Min Temperature 54 °F 42 °F 32 °F (1964)
Degree Days  
Heating Degree Days 0 12  
Month to date heating degree days 180 177  
Since 1 July heating degree days 404 509  
Cooling Degree Days 4 0  
Month to date cooling degree days 9 0  
Year to date cooling degree days 643 330  
Growing Degree Days 18 (Base 50)    
Moisture  
Dew Point 28 °F    
Average Humidity 31    
Maximum Humidity 51    
Minimum Humidity 10    
Precipitation  
Precipitation 0.00 in 0.05 in 1.09 in (1987)
Month to date precipitation 0.22 0.65  
Year to date precipitation 2.97 13.81  
Since 1 July precipitation 0.82  
Sea Level Pressure  
Sea Level Pressure 30.11 in    
Wind  
Wind Speed 6 mph (ENE)    
Max Wind Speed 14 mph    
Max Gust Speed 16 mph    
Visibility 10 miles    
Events      
T = Trace of Precipitation, MM = Missing Value Source: NWS Daily Summary

Daily Weather History Graph

Daily Weather History Graph

Search for Another Location

Airport or City:

Trip Planner

Search our weather history database for the weather conditions in past years. The results will help you decide how hot, cold, wet, or windy it might be!

Date:

Astronomy

Dec. 16, 2013 Rise Set
Actual Time 6:55 AM PST 4:48 PM PST
Civil Twilight 6:27 AM PST 5:16 PM PST
Nautical Twilight 5:56 AM PST 5:47 PM PST
Astronomical Twilight 5:26 AM PST 6:18 PM PST
Moon 4:40 PM PST (12/16) 6:10 AM PST (12/16)
Length of Visible Light 10h 48m
Length of Day
9h 52m
Full, 100% of the Moon is Illuminated
Dec 16
Full
Dec 17
Full
Dec 25
Last Quarter
Jan 1
New
Jan 7
First Quarter

Hourly Weather History & Observations

Time (PST) Temp. Dew Point Humidity Pressure Visibility Wind Dir Wind Speed Gust Speed Precip Events Conditions
12:55 AM 66.9 °F 19.9 °F 17% 30.13 in 10.0 mi ENE 10.4 mph - N/A   Clear
1:55 AM 66.0 °F 21.0 °F 18% 30.12 in 10.0 mi ENE 8.1 mph - N/A   Clear
2:55 AM 64.9 °F 21.0 °F 19% 30.11 in 10.0 mi ENE 6.9 mph - N/A   Clear
3:55 AM 66.0 °F 19.9 °F 17% 30.10 in 10.0 mi East 3.5 mph - N/A   Clear
4:55 AM 63.0 °F 21.0 °F 20% 30.10 in 10.0 mi ENE 6.9 mph - N/A   Clear
5:55 AM 66.0 °F 19.9 °F 17% 30.10 in 10.0 mi East 5.8 mph - N/A   Clear
6:55 AM 64.0 °F 21.0 °F 19% 30.11 in 10.0 mi East 6.9 mph - N/A   Clear
7:55 AM 70.0 °F 19.9 °F 15% 30.12 in 10.0 mi Calm Calm - N/A   Clear
8:55 AM 75.0 °F 19.9 °F 13% 30.13 in 10.0 mi East 11.5 mph - N/A   Clear
9:55 AM 80.1 °F 19.9 °F 11% 30.14 in 10.0 mi East 11.5 mph - N/A   Clear
10:55 AM 77.0 °F 32.0 °F 19% 30.14 in 10.0 mi WNW 8.1 mph - N/A   Clear
11:55 AM 78.1 °F 32.0 °F 19% 30.11 in 10.0 mi West 5.8 mph - N/A   Clear
12:55 PM 75.0 °F 34.0 °F 22% 30.11 in 10.0 mi WSW 8.1 mph - N/A   Clear
1:55 PM 78.1 °F 28.9 °F 17% 30.08 in 10.0 mi Calm Calm - N/A   Clear
2:55 PM 78.1 °F 30.9 °F 18% 30.07 in 10.0 mi SSW 3.5 mph - N/A   Clear
3:55 PM 73.0 °F 43.0 °F 34% 30.08 in 10.0 mi West 6.9 mph - N/A   Clear
4:55 PM 64.0 °F 39.9 °F 41% 30.09 in 10.0 mi WNW 6.9 mph - N/A   Clear
5:55 PM 59.0 °F 37.9 °F 46% 30.09 in 10.0 mi Calm Calm - N/A   Clear
6:55 PM 59.0 °F 39.9 °F 49% 30.10 in 10.0 mi Calm Calm - N/A   Clear
7:55 PM 57.0 °F 39.0 °F 51% 30.12 in 10.0 mi Calm Calm - N/A   Clear
8:55 PM 57.9 °F 35.1 °F 42% 30.12 in 10.0 mi NNE 5.8 mph - N/A   Clear
9:55 PM 59.0 °F 32.0 °F 36% 30.12 in 10.0 mi NE 10.4 mph - N/A   Clear
10:55 PM 62.1 °F 27.0 °F 26% 30.12 in 10.0 mi ENE 8.1 mph - N/A   Clear
11:55 PM 63.0 °F 25.0 °F 24% 30.12 in 10.0 mi NE 9.2 mph - N/A   Clear